Regional Weather Roundup
Issued by NWS

Home | Current Version | Previous Version | Graphics & Text | Print | Product List | Glossary On
Versions: 1 2 3 4 5 6 7 8 9 10 11 12 13 14 15 16 17 18 19 20 21 22 23 24 25 26 27 28 29 30 31 32 33 34 35 36 37 38 39 40 41 42 43 44 45 46 47 48 49 50
000
ASUS43 KFSD 181610
RWRSD

WEATHER ROUNDUP FOR SOUTH DAKOTA
NATIONAL WEATHER SERVICE SIOUX FALLS SD
1000 AM CST THU DEC 18 2014

NOTE: "FAIR" INDICATES FEW OR NO CLOUDS BELOW 12,000 FEET WITH NO
SIGNIFICANT WEATHER AND/OR OBSTRUCTIONS TO VISIBILITY.


SDZ001>005-009-010-012>017-181700-
NORTHWEST AND NORTH CENTRAL SOUTH DAKOTA

CITY           SKY/WX    TMP DP  RH WIND       PRES   REMARKS
BUFFALO          N/A     24  21  88 S3        29.90R
FAITH            N/A     24  19  81 S9        30.02S WCI  14
MOBRIDGE       CLOUDY    22  19  89 S12       30.07R WCI  10
$$

SDZ012>016-024>037-041>051-057-063-072>074-181700-
SOUTHWEST AND SOUTH CENTRAL SOUTH DAKOTA

CITY           SKY/WX    TMP DP  RH WIND       PRES   REMARKS
RAPID CTY ARPT FOG       20  19  96 SE5       30.00S VSB<1/4 WCI  13
PIERRE         CLOUDY    23  21  92 SE6       30.11R WCI  16
CUSTER         SUNNY     30  21  69 CALM      29.96R
ELLSWORTH AFB  SUNNY     22  20  94 SW3       29.99
PHILIP         CLOUDY    25  21  85 SW8       30.08R WCI  16
PINE RIDGE     SUNNY     12   7  80 CALM      30.04R
SPEARFISH      MIX PCPN  27  25  93 CALM      29.98R
WINNER         CLOUDY    25  21  85 SE7       30.11S WCI  17
$$

SDZ004>011-016>023-039-040-181700-
NORTHEAST SOUTH DAKOTA

CITY           SKY/WX    TMP DP  RH WIND       PRES   REMARKS
ABERDEEN       CLOUDY    21  15  78 S12       30.19S WCI   9
WATERTOWN      CLOUDY    19  14  81 S12       30.18R WCI   7
SISSETON         N/A     15  12  88 S8        30.23R WCI   4
$$

SDZ017-020-022-023-036>040-048>070-181700-
SOUTHEAST SOUTH DAKOTA

CITY           SKY/WX    TMP DP  RH WIND       PRES   REMARKS
SIOUX FALLS    CLOUDY    21  18  88 SE7       30.22S WCI  12
HURON          CLOUDY    21  18  88 S10       30.20R WCI  10
CHAMBERLAIN    CLOUDY    22  19  91 SE8       30.14S WCI  12
MITCHELL       CLOUDY    23  19  85 SE12      30.21S WCI  12
YANKTON        CLOUDY    25  21  86 E5        30.23S WCI  19
$$

ABBREVIATIONS USED IN REMARKS
   TC - TEMPERATURE IN CELSIUS
  WCI - WIND CHILL INDEX
   HX - HEAT INDEX
  VSB - VISIBILITY



USA.gov is the U.S. government's official web portal to all federal, state and local government web resources and services.